• In Austria
  • List of Countries
  • For 7 days
  • Water Temperature
  • Satellite Maps
  • Weather Map
  • News
  • Weather Widgets
  • user-avatar
    Login

    Hourly Weather Tirana

    Today, 18 December, Monday

    Time Temperature Precipitation Wind Pressure Humidity
    00:00 +5°C° 0.6 mm 5 mps 753 mmHg 85%
    01:00 +4°C° 0 mm 6 mps 754 mmHg 81%
    02:00 +4°C° 1.1 mm 6 mps 754 mmHg 83%
    03:00 +4°C° 1.1 mm 6 mps 754 mmHg 86%
    04:00 +3°C° 1.1 mm 6 mps 754 mmHg 89%
    05:00 +3°C° 0.2 mm 5 mps 754 mmHg 90%
    06:00 +3°C° 0.2 mm 5 mps 754 mmHg 90%
    07:00 +4°C° 0 mm 4 mps 754 mmHg 91%
    08:00 +4°C° 0 mm 3 mps 754 mmHg 88%
    09:00 +5°C° 0 mm 3 mps 755 mmHg 85%
    10:00 +7°C° 0 mm 3 mps 755 mmHg 82%
    11:00 +7°C° 0.1 mm 3 mps 755 mmHg 79%
    12:00 +7°C° 0.1 mm 3 mps 754 mmHg 76%
    13:00 +8°C° 0.1 mm 3 mps 754 mmHg 74%
    14:00 +7°C° 0.3 mm 3 mps 754 mmHg 76%
    15:00 +5°C° 0.3 mm 3 mps 755 mmHg 79%
    16:00 +5°C° 0.3 mm 4 mps 755 mmHg 82%
    17:00 +4°C° 0.3 mm 4 mps 755 mmHg 83%
    18:00 +4°C° 0.3 mm 4 mps 755 mmHg 84%
    19:00 +3°C° 0.3 mm 4 mps 756 mmHg 86%
    20:00 +3°C° 0.2 mm 3 mps 756 mmHg 85%
    21:00 +3°C° 0.2 mm 3 mps 757 mmHg 85%
    22:00 +2°C° 0.2 mm 3 mps 757 mmHg 85%
    23:00 +2°C° 0 mm 3 mps 758 mmHg 85%

    Tomorrow, 19 December, Tuesday

    Time Temperature Precipitation Wind Pressure Humidity
    00:00 +2°C° 0 mm 3 mps 758 mmHg 85%
    01:00 +2°C° 0 mm 3 mps 758 mmHg 84%
    02:00 +1°C° 0 mm 3 mps 759 mmHg 83%
    03:00 0°C° 0 mm 4 mps 759 mmHg 83%
    04:00 0°C° 0 mm 4 mps 759 mmHg 82%
    05:00 -1°C° 0 mm 4 mps 760 mmHg 81%
    06:00 -1°C° 0 mm 4 mps 760 mmHg 79%
    07:00 -2°C° 0 mm 4 mps 761 mmHg 78%
    08:00 0°C° 0 mm 4 mps 761 mmHg 74%
    09:00 +1°C° 0 mm 4 mps 762 mmHg 69%
    10:00 +4°C° 0 mm 4 mps 762 mmHg 65%
    11:00 +4°C° 0 mm 4 mps 762 mmHg 62%
    12:00 +5°C° 0 mm 3 mps 762 mmHg 60%
    13:00 +5°C° 0 mm 3 mps 762 mmHg 58%
    14:00 +4°C° 0 mm 3 mps 762 mmHg 62%
    15:00 +4°C° 0 mm 3 mps 762 mmHg 65%
    16:00 +3°C° 0 mm 4 mps 762 mmHg 69%
    17:00 +1°C° 0 mm 4 mps 763 mmHg 70%
    18:00 0°C° 0 mm 4 mps 763 mmHg 71%
    19:00 -1°C° 0 mm 4 mps 763 mmHg 73%
    20:00 -1°C° 0 mm 4 mps 763 mmHg 73%
    21:00 -1°C° 0 mm 4 mps 764 mmHg 73%
    22:00 -2°C° 0 mm 4 mps 764 mmHg 73%
    23:00 -2°C° 0 mm 4 mps 764 mmHg 73%

    Day after tomorrow, 20 December, Wednesday

    Time Temperature Precipitation Wind Pressure Humidity
    00:00 -2°C° 0 mm 4 mps 764 mmHg 73%
    01:00 -2°C° 0 mm 4 mps 764 mmHg 73%
    02:00 -2°C° 0 mm 4 mps 764 mmHg 72%
    03:00 -1°C° 0 mm 3 mps 764 mmHg 72%
    04:00 -1°C° 0 mm 3 mps 763 mmHg 72%
    05:00 -1°C° 0 mm 3 mps 763 mmHg 72%
    06:00 -1°C° 0 mm 3 mps 764 mmHg 71%
    07:00 -1°C° 0 mm 3 mps 764 mmHg 70%
    08:00 0°C° 0 mm 3 mps 764 mmHg 66%
    09:00 +2°C° 0 mm 3 mps 764 mmHg 62%
    10:00 +3°C° 0 mm 3 mps 764 mmHg 58%
    11:00 +4°C° 0 mm 3 mps 763 mmHg 56%
    12:00 +5°C° 0 mm 3 mps 763 mmHg 53%
    13:00 +5°C° 0 mm 3 mps 762 mmHg 51%
    14:00 +4°C° 0 mm 3 mps 762 mmHg 55%
    15:00 +4°C° 0 mm 3 mps 762 mmHg 59%
    16:00 +3°C° 0 mm 3 mps 762 mmHg 63%
    17:00 +2°C° 0 mm 3 mps 762 mmHg 65%
    18:00 +1°C° 0 mm 3 mps 763 mmHg 66%
    19:00 0°C° 0 mm 3 mps 763 mmHg 68%
    20:00 0°C° 0 mm 3 mps 763 mmHg 67%
    21:00 0°C° 0 mm 3 mps 763 mmHg 67%
    22:00 -1°C° 0 mm 3 mps 763 mmHg 67%
    23:00 -1°C° 0 mm 3 mps 763 mmHg 66%

    21 December, Thursday

    Time Temperature Precipitation Wind Pressure Humidity
    00:00 -1°C° 0 mm 3 mps 763 mmHg 66%
    01:00 -1°C° 0 mm 3 mps 763 mmHg 66%
    02:00 -1°C° 0 mm 3 mps 763 mmHg 65%
    03:00 -1°C° 0 mm 3 mps 763 mmHg 65%
    04:00 -1°C° 0 mm 3 mps 763 mmHg 65%
    05:00 -1°C° 0 mm 3 mps 763 mmHg 65%
    06:00 -1°C° 0 mm 3 mps 763 mmHg 65%
    07:00 -1°C° 0 mm 3 mps 763 mmHg 65%
    08:00 0°C° 0 mm 3 mps 764 mmHg 61%
    09:00 +2°C° 0 mm 3 mps 764 mmHg 58%
    10:00 +3°C° 0 mm 3 mps 764 mmHg 55%
    11:00 +4°C° 0 mm 3 mps 763 mmHg 54%
    12:00 +5°C° 0 mm 3 mps 763 mmHg 52%
    13:00 +6°C° 0 mm 4 mps 763 mmHg 50%
    14:00 +5°C° 0 mm 4 mps 763 mmHg 56%
    15:00 +3°C° 0 mm 4 mps 763 mmHg 61%
    16:00 +1°C° 0 mm 4 mps 762 mmHg 66%
    17:00 +1°C° 0 mm 4 mps 763 mmHg 67%
    18:00 0°C° 0 mm 4 mps 763 mmHg 69%
    19:00 -1°C° 0 mm 4 mps 764 mmHg 71%
    20:00 -1°C° 0 mm 4 mps 764 mmHg 70%
    21:00 -1°C° 0 mm 4 mps 764 mmHg 70%
    22:00 -1°C° 0 mm 3 mps 764 mmHg 69%
    23:00 -1°C° 0 mm 3 mps 764 mmHg 68%

    22 December, Friday

    Time Temperature Precipitation Wind Pressure Humidity
    00:00 -1°C° 0 mm 3 mps 764 mmHg 66%
    01:00 -1°C° 0 mm 3 mps 764 mmHg 65%
    02:00 -1°C° 0 mm 3 mps 763 mmHg 63%
    03:00 -1°C° 0 mm 3 mps 763 mmHg 61%
    04:00 -1°C° 0 mm 3 mps 763 mmHg 58%
    05:00 0°C° 0 mm 3 mps 763 mmHg 57%
    06:00 0°C° 0 mm 3 mps 763 mmHg 55%
    07:00 0°C° 0 mm 3 mps 763 mmHg 53%
    08:00 +1°C° 0 mm 4 mps 762 mmHg 50%
    09:00 +4°C° 0 mm 4 mps 762 mmHg 48%
    10:00 +6°C° 0 mm 4 mps 762 mmHg 45%
    11:00 +7°C° 0 mm 4 mps 761 mmHg 46%
    12:00 +8°C° 0 mm 4 mps 761 mmHg 48%
    13:00 +9°C° 0 mm 5 mps 760 mmHg 49%
    14:00 +8°C° 0 mm 5 mps 760 mmHg 54%
    15:00 +7°C° 0 mm 5 mps 760 mmHg 59%
    16:00 +5°C° 0 mm 5 mps 760 mmHg 64%
    17:00 +3°C° 0 mm 5 mps 760 mmHg 64%
    18:00 +3°C° 0 mm 5 mps 760 mmHg 64%
    19:00 +2°C° 0 mm 5 mps 760 mmHg 64%
    20:00 +2°C° 0 mm 5 mps 760 mmHg 64%
    21:00 +1°C° 0 mm 5 mps 760 mmHg 64%
    22:00 +1°C° 0 mm 5 mps 760 mmHg 65%
    23:00 +1°C° 0 mm 5 mps 760 mmHg 65%

    23 December, Saturday

    Time Temperature Precipitation Wind Pressure Humidity
    00:00 +1°C° 0 mm 5 mps 760 mmHg 65%
    01:00 +1°C° 0 mm 5 mps 759 mmHg 65%
    02:00 +1°C° 0 mm 6 mps 759 mmHg 65%
    03:00 +1°C° 0 mm 6 mps 759 mmHg 65%
    04:00 +1°C° 0 mm 6 mps 758 mmHg 65%
    05:00 +1°C° 0 mm 6 mps 758 mmHg 65%
    06:00 -1°C° 0 mm 6 mps 758 mmHg 65%
    07:00 -1°C° 0 mm 6 mps 758 mmHg 65%
    08:00 +2°C° 0 mm 6 mps 758 mmHg 62%
    09:00 +3°C° 0 mm 6 mps 758 mmHg 59%
    10:00 +5°C° 0 mm 6 mps 758 mmHg 56%
    11:00 +5°C° 0 mm 6 mps 758 mmHg 54%
    12:00 +7°C° 0 mm 6 mps 757 mmHg 52%
    13:00 +7°C° 0 mm 6 mps 757 mmHg 50%
    14:00 +5°C° 0 mm 6 mps 757 mmHg 55%
    15:00 +4°C° 0 mm 6 mps 757 mmHg 60%
    16:00 +3°C° 0 mm 6 mps 758 mmHg 65%
    17:00 +2°C° 0 mm 6 mps 758 mmHg 66%
    18:00 +1°C° 0 mm 6 mps 758 mmHg 67%
    19:00 -1°C° 0 mm 6 mps 759 mmHg 68%
    20:00 0°C° 0 mm 5 mps 759 mmHg 67%
    21:00 0°C° 0 mm 5 mps 759 mmHg 66%
    22:00 0°C° 0 mm 5 mps 759 mmHg 65%
    23:00 -2°C° 0 mm 6 mps 759 mmHg 66%
    Show more